Regional Weather Roundup
Issued by NWS Upton, NY

Current Version | Previous Version | Graphics & Text | Print | Product List | Glossary Off
Versions: 1 2 3 4 5 6 7 8 9 10 11 12 13 14 15 16 17 18 19 20 21 22 23 24 25 26 27 28 29 30 31 32 33 34 35 36 37 38 39 40 41 42 43 44 45 46 47 48 49 50
000 ASUS41 KOKX 030308 RWROKX REGIONAL WEATHER ROUNDUP NATIONAL WEATHER SERVICE NEW YORK NY 1100 PM EDT THU JUL 02 2015 NOTE: "FAIR" INDICATES FEW OR NO CLOUDS BELOW 12,000 FEET WITH NO SIGNIFICANT WEATHER AND/OR OBSTRUCTIONS TO VISIBILITY. NYZ071-072-176-178-NJZ106-104-030400- NEW YORK CITY METRO AREA CITY SKY/WX TMP DP RH WIND PRES REMARKS CENTRAL PARK CLOUDY 73 59 61 W3 29.90S LAGUARDIA APRT CLOUDY 74 60 61 SW3 29.87R KENNEDY INTL CLOUDY 69 63 81 W6 29.88S NEWARK/LIBERTY CLOUDY 72 63 73 SW8 29.88R BRNX BOT. GARD N/A 70 59 68 CALM 29.90R TETERBORO CLOUDY 71 60 68 CALM 29.87R $$ NYZ177-179-078>081-030400- LONG ISLAND NEW YORK CITY SKY/WX TMP DP RH WIND PRES REMARKS FARMINGDALE CLOUDY 69 64 84 CALM 29.86F ISLIP LGT RAIN 68 63 84 SW5 29.87S SHIRLEY LGT RAIN 66 62 87 CALM 29.88S WESTHAMPTON CLOUDY 66 64 93 CALM 29.90R MONTAUK POINT N/A 69 62 78 CALM 29.89R $$ NYZ052-065-067-030400- HUDSON VALLEY CITY SKY/WX TMP DP RH WIND PRES REMARKS WHITE PLAINS CLOUDY 69 63 81 CALM 29.88S NEWBURGH CLEAR 68 61 77 CALM 29.91R MONTGOMERY MOCLDY 67 61 81 NE6 29.89S POUGHKEEPSIE CLOUDY 68 63 84 N3 29.89R ALBANY MOCLDY 64 47 53 W5 29.92R $$ NJZ001-105-106-008-010-013-015-019>022-104-030400- NEW JERSEY CITY SKY/WX TMP DP RH WIND PRES REMARKS NEWARK/LIBERTY CLOUDY 72 63 73 SW8 29.88R TETERBORO CLOUDY 71 60 68 CALM 29.87R CALDWELL CLOUDY 71 62 73 CALM 29.89R MORRISTOWN CLOUDY 68 63 83 CALM 29.89R SOMERVILLE CLOUDY 67 64 90 CALM 29.87R SUSSEX CLOUDY 64 60 87 CALM 29.90R ANDOVER N/A 64 62 93 CALM 29.91R TRENTON CLOUDY 67 65 93 CALM 29.89R MILLVILLE FOG 66 65 96 CALM 29.89S VSB 3/4 ATLANTIC CITY CLOUDY 66 65 96 NW7 29.90R FOG WRIGHTSTOWN CLOUDY 66 66 100 S1 29.87R FOG TOMS RIVER CLOUDY 66 64 94 CALM 29.89S BELMAR CLOUDY 66 63 88 CALM 29.89R $$ PAZ047>061-062-071-030400- EASTERN PENNSYLVANIA CITY SKY/WX TMP DP RH WIND PRES REMARKS PHILADELPHIA MOCLDY 72 64 76 NW3 29.90R ALLENTOWN MOCLDY 66 62 87 CALM 29.90R SCRANTON PTCLDY 62 58 86 CALM 29.94R $$ CTZ002-004>006-009-010-012-RIZ004-006-007-MAZ004-011-015-030400- SOUTHERN NEW ENGLAND IN CT CITY SKY/WX TMP DP RH WIND PRES REMARKS BRADLEY INTL CLOUDY 68 58 70 N8 29.88S HARTFORD CLOUDY 71 60 68 VRB6 29.88S DANBURY CLOUDY 65 59 81 CALM 29.90S WTRBRY/OXFORD CLOUDY 64 55 72 N7 29.91S BRIDGEPORT CLOUDY 73 62 68 CALM 29.87S MERIDEN CLOUDY 69 64 84 CALM 29.88S NEW HAVEN CLOUDY 69 64 84 CALM 29.88S CHESTER FAIR 66 61 82 CALM 29.89F GROTON CLOUDY 68 62 81 N3 29.87S WILLIMANTIC CLOUDY 67 64 90 N3 29.88F IN RI CITY SKY/WX TMP DP RH WIND PRES REMARKS PROVIDENCE CLOUDY 72 63 73 CALM 29.87F BLOCK ISLAND CLOUDY 66 59 77 CALM 29.87S WESTERLY CLOUDY 69 61 75 CALM 29.88S IN MA CITY SKY/WX TMP DP RH WIND PRES REMARKS BOSTON CLOUDY 74 56 53 NW7 29.87F WORCESTER CLOUDY 65 56 72 NW6 29.91F WESTFIELD CLOUDY 64 59 83 CALM 29.89F PROVINCETOWN CLOUDY 66 9 10 CALM 29.87F NANTUCKET CLOUDY 66 63 90 CALM 29.85F FOG $$ ANZ330-335-338-340-345-350-353-355-030400- COASTAL MARINE OBSERVATIONS STATION/POSITION TIME SKY/WX TEMP WIND PRES VSBY WAVE AIR SEA DIR/SP/G HT/PER (UTC) (F) (DEG/KT/KT) (MB) (MI) (FT/S) NY HARB ENTRANCE 0250 69 70 190/ 2/ 4 1011.3 3/ 8 4S FIRE IS 0203 69 N/A 3/ 8 20S FIRE ISLAND 0250 67 68 20/ 6/ 6 1011.3 3/ 8 GREAT SOUTH BAY 0200 71 75 220/ 4/ 6 N/A 23SW MTP 0250 67 67 310/ 4/ 6 1011.3 3/ 8 HUDSON CANYON NOT AVBL KINGS POINT 0200 72 66 170/ 3/ 4 1010.8 CENTRAL LI SOUND NOT AVBL EASTERN LI SOUND 0200 65 63 20/ 2/ 4 N/A ROBBINS REEF 0200 69 160/ 3/ 4 1010.5 $$ >>>>>>>>>>>>>>>>>>>>>>>>>>>> KEY <<<<<<<<<<<<<<<<<<<<<<<<<<< > < > SKY/WX - SKY CONDITION/PRESENT WEATHER < > TMP - TEMPERATURE IN FAHRENHEIT < > DP - DEWPOINT IN FAHRENHEIT < > RH - RELATIVE HUMIDITY IN PERCENT < > WIND - DIRECTION AND SPEED IN MPH < > PRES - MEAN SEA LEVEL PRESSURE IN INCHES OF HG < > WCI - WIND CHILL INDEX < > VSB - VISIBILITY IN MILES < > HX - HEAT INDEX < > TC - TEMPERATURE IN CELSIUS < > VRB - VARIABLE WIND DIRECTION < > < >>>>>>>>>>>>>>>>>>>>>>>>>>>> KEY <<<<<<<<<<<<<<<<<<<<<<<<<<<

USA.gov is the U.S. government's official web portal to all federal, state and local government web resources and services.